[[{"header":{"parameterUnit":"m.s-1","parameterCategory":1,"la1":30.2991,"la2":30.254,"lo1":-89.0895,"lo2":-89.0444,"dy":0.0017,"dx":0.0017,"nx":28,"ny":28,"refTime":"2023-11-22T09:00:00:Z","depth":0,"parameterNumber":2,"parameterNumberName":"U-component_of_WINDS"},"data":[0,0,0,0,0,0,0,0,0,0,0,0,0,0,0,0,0,0,0,0,0,0,0,0,0,0,0,0,0,0,0,0,0,0,0,0,0,0,0,0,0,0,0,0,0,0,0,0,0,0,0,0,0,0,0,0,0,0,-1.3845,-1.3846,0,-1.3862,-1.3862,-1.3863,-1.3823,-1.3822,-1.3821,-1.382,-1.3838,-1.384,-1.3842,0,0,0,0,0,0,0,0,0,0,0,0,0,-1.378,-1.3781,-1.3845,-1.3846,-1.3846,-1.3862,-1.3863,-1.3863,-1.3824,-1.3822,-1.382,-1.3819,-1.3838,-1.384,-1.3842,0,0,0,0,0,0,0,0,0,0,0,0,0,-1.3804,-1.3782,-1.3845,-1.3828,-1.3827,-1.3862,-1.3863,-1.3863,-1.3824,-1.3822,-1.382,-1.3818,-1.3837,-1.384,-1.3842,-1.3895,0,0,-1.385,-1.3851,0,0,0,0,0,0,0,0,-1.3803,-1.3806,-1.383,-1.3829,-1.3828,-1.3839,-1.3846,-1.3874,-1.3824,-1.3825,-1.382,-1.3817,-1.384,-1.3842,-1.385,-1.3896,-1.3897,-1.385,-1.3852,-1.3853,-1.3853,0,0,0,0,0,0,0,-1.3801,-1.3805,-1.3852,-1.3831,-1.3829,-1.382,-1.3821,-1.3851,-1.3843,-1.3825,-1.3822,-1.3824,-1.3839,-1.3847,-1.385,-1.3897,-1.385,-1.3852,-1.3854,-1.3855,-1.3989,-1.399,0,0,0,0,0,0,-1.3801,-1.3804,-1.3852,-1.3853,-1.381,-1.3823,-1.3824,-1.3837,-1.3843,-1.3842,-1.3826,-1.3823,-1.3844,-1.3847,-1.385,-1.3913,-1.3853,-1.3855,-1.3856,-1.3987,-1.3989,-1.3991,0,0,0,0,0,0,-1.38,-1.3806,-1.3851,-1.3828,-1.3833,-1.3826,-1.3841,-1.3839,-1.3847,-1.3843,-1.3842,-1.3836,-1.3843,-1.3847,-1.3884,-1.3913,-1.3856,-1.3858,-1.3984,-1.3987,-1.399,-1.404,0,0,0,0,0,0,-1.3798,-1.3806,-1.3826,-1.3828,-1.3834,-1.3885,-1.3843,-1.384,-1.3851,-1.3847,-1.3852,-1.3852,-1.3841,-1.3881,-1.3887,-1.3916,-1.386,-1.3981,-1.3985,-1.3989,-1.4036,-1.4044,-1.4052,0,0,0,0,0,-1.3796,-1.3839,-1.3827,-1.3833,-1.3859,-1.3886,-1.389,-1.3877,-1.3853,-1.3874,-1.3872,-1.3851,-1.3909,-1.3885,-1.3892,-1.3922,-1.398,-1.3984,-1.3989,-1.4032,-1.4042,-1.4051,0,0,0,0,0,0,-1.3841,-1.3839,-1.3826,-1.3871,-1.3879,-1.388,-1.3905,-1.3888,-1.3904,-1.3899,-1.3882,-1.3884,-1.3925,-1.3927,-1.39,-1.3973,-1.394,-1.3947,-1.3971,-1.3981,-1.3989,-1.3988,-1.3862,0,0,0,0,0,-1.3856,-1.3878,-1.3876,-1.3916,-1.3921,-1.3912,-1.3924,-1.3913,-1.3921,-1.3924,-1.3925,-1.3933,-1.3953,-1.3967,-1.3985,-1.4035,-1.4036,-1.4059,-1.4067,-1.4074,-1.4079,-1.4106,-1.4116,-1.4006,-1.4006,-1.4006,0,0,-1.3888,-1.389,-1.3905,-1.3925,-1.393,-1.3954,-1.3915,-1.3942,-1.3959,-1.3928,-1.3964,-1.3964,-1.3973,-1.4017,-1.4037,-1.402,-1.411,-1.4079,-1.4085,-1.4087,-1.4112,-1.4122,-1.4132,-1.4009,-1.4009,-1.4008,0,0,-1.3958,-1.3961,-1.3995,-1.4001,-1.4008,-1.4002,-1.401,-1.4013,-1.4012,-1.4048,-1.4025,-1.4045,-1.408,-1.4087,-1.4095,-1.4167,-1.4149,-1.4173,-1.4216,-1.4242,-1.4251,-1.4258,-1.4284,-1.4294,-1.4179,-1.4179,-1.4179,0,-1.3997,-1.4031,-1.4015,-1.4043,-1.4053,-1.4025,-1.4059,-1.4065,-1.4079,-1.4086,-1.4067,-1.411,-1.4114,-1.4159,-1.4177,-1.4184,-1.4193,-1.4173,-1.425,-1.4258,-1.4265,-1.429,-1.4299,-1.4182,-1.4182,-1.4181,-1.4181,0,-1.4078,-1.4102,-1.4129,-1.4142,-1.4155,-1.4186,-1.4175,-1.4189,-1.4177,-1.4173,-1.4209,-1.4213,-1.4231,-1.4241,-1.4229,-1.4285,-1.4274,-1.4253,-1.422,-1.4279,-1.4302,-1.4311,-1.4186,-1.4185,-1.4184,-1.4183,0,0,-1.4179,-1.4182,-1.4192,-1.4197,-1.4203,-1.4222,-1.4252,-1.4269,-1.4282,-1.4292,-1.4317,-1.4346,-1.4327,-1.4336,-1.4325,-1.4348,-1.4405,-1.4324,-1.4324,-1.434,-1.4467,-1.4483,-1.4494,-1.4393,-1.4394,-1.4396,-1.4466,0,-1.4248,-1.4299,-1.4285,-1.4336,-1.4359,-1.4332,-1.4358,-1.4364,-1.4361,-1.4379,-1.4376,-1.4397,-1.4369,-1.4375,-1.4396,-1.4394,-1.443,-1.4388,-1.4416,-1.4418,-1.4416,-1.4506,-1.4524,-1.4591,-1.4475,-1.4476,-1.4477,0,-1.4337,-1.435,-1.4403,-1.4405,-1.4414,-1.4437,-1.4452,-1.447,-1.4477,-1.4473,-1.4483,-1.4467,-1.4496,-1.4462,-1.4502,-1.4474,-1.4484,-1.4485,-1.4487,-1.449,-1.4452,-1.4513,-1.4611,-1.4622,-1.4491,-1.449,-1.4489,0,-1.4406,-1.4436,-1.4472,-1.4477,-1.448,-1.4498,-1.45,-1.4505,-1.4516,-1.4529,-1.4536,-1.4552,-1.4561,-1.4574,-1.4563,-1.4539,-1.4606,-1.457,-1.4604,-1.4604,-1.462,-1.462,-1.4723,-1.4625,-1.4625,-1.4625,-1.4625,0,-1.4486,-1.452,-1.4503,-1.4525,-1.4562,-1.4545,-1.4583,-1.4582,-1.4586,-1.4608,-1.4585,-1.4606,-1.4589,-1.4609,-1.46,-1.4636,-1.464,-1.4638,-1.4635,-1.4641,-1.4641,-1.4648,-1.4644,-1.4628,-1.4627,-1.4627,-1.4626,0,-1.457,-1.456,-1.4597,-1.4596,-1.4597,-1.4624,-1.4624,-1.4644,-1.4639,-1.4667,-1.4672,-1.4664,-1.4686,-1.4675,-1.4698,-1.4692,-1.4738,-1.4729,-1.4736,-1.4734,-1.4768,-1.4766,-1.4881,-1.4895,-1.4788,-1.4789,-1.4789,0,-1.4622,-1.4648,-1.4649,-1.4662,-1.4665,-1.4686,-1.4697,-1.4681,-1.4694,-1.4703,-1.4723,-1.4742,-1.4757,-1.4793,-1.4789,-1.4807,-1.4798,-1.4837,-1.4801,-1.4805,-1.48,-1.4799,-1.4802,-1.4845,-1.4846,-1.4848,-1.4848,0,-1.4717,-1.471,-1.4727,-1.4742,-1.4756,-1.4767,-1.4776,-1.4788,-1.4772,-1.4787,-1.4809,-1.482,-1.4843,-1.4863,-1.4878,-1.488,-1.4862,-1.4859,-1.4868,-1.4875,-1.4878,-1.4877,-1.4757,-1.4857,-1.4856,-1.4856,-1.4855,-1.4855,-1.4787,-1.4808,-1.4813,-1.4832,-1.4837,-1.4846,-1.4865,-1.4862,-1.4879,-1.4896,-1.4886,-1.4911,-1.4917,-1.4935,-1.4939,-1.4959,-1.4944,-1.4957,-1.496,-1.4964,-1.4969,-1.4874,-1.4962,-1.4962,-1.4961,-1.4961,-1.4961,0,-1.4881,-1.4882,-1.49,-1.4913,-1.4928,-1.4909,-1.4918,-1.4932,-1.4954,-1.4961,-1.4976,-1.5,-1.5019,-1.5017,-1.5034,-1.505,-1.5042,-1.5055,-1.5055,-1.5056,-1.4981,-1.4972,-1.5062,-1.5062,-1.5062,-1.5061,-1.5061,-1.5061,-1.4932,-1.4967,-1.4961,-1.4998,-1.4999,-1.5023,-1.503,-1.5038,-1.5043,-1.5072,-1.5087,-1.5085,-1.5088,-1.5105,-1.5121,-1.512,-1.5128,-1.5144,-1.514,-1.5071,-1.5061,-1.5051,-1.5043,-1.5146,-1.5146,-1.5213,-1.5214,-1.5214]},{"header":{"parameterUnit":"m.s-1","parameterCategory":1,"la1":30.2991,"la2":30.254,"lo1":-89.0895,"lo2":-89.0444,"dy":0.0017,"dx":0.0017,"nx":28,"ny":28,"refTime":"2023-11-22T09:00:00:Z","depth":0,"parameterNumber":3,"parameterNumberName":"V-component_of_WINDS"},"data":[0,0,0,0,0,0,0,0,0,0,0,0,0,0,0,0,0,0,0,0,0,0,0,0,0,0,0,0,0,0,0,0,0,0,0,0,0,0,0,0,0,0,0,0,0,0,0,0,0,0,0,0,0,0,0,0,0,0,-1.5426,-1.5427,0,-1.5476,-1.5476,-1.5477,-1.5481,-1.5481,-1.548,-1.548,-1.553,-1.5532,-1.5534,0,0,0,0,0,0,0,0,0,0,0,0,0,-1.5335,-1.5337,-1.5426,-1.5427,-1.5428,-1.5476,-1.5476,-1.5477,-1.5482,-1.5481,-1.548,-1.548,-1.553,-1.5532,-1.5534,0,0,0,0,0,0,0,0,0,0,0,0,0,-1.5378,-1.5337,-1.5426,-1.5436,-1.5437,-1.5476,-1.5477,-1.5477,-1.5482,-1.5481,-1.548,-1.5479,-1.5529,-1.5532,-1.5534,-1.5567,0,0,-1.5543,-1.5544,0,0,0,0,0,0,0,0,-1.5376,-1.5382,-1.5434,-1.5435,-1.5437,-1.5472,-1.5463,-1.5507,-1.5482,-1.5465,-1.548,-1.5479,-1.5511,-1.5515,-1.5526,-1.5569,-1.5571,-1.5543,-1.5545,-1.5546,-1.5547,0,0,0,0,0,0,0,-1.5373,-1.538,-1.5446,-1.5434,-1.5436,-1.5437,-1.5442,-1.5471,-1.5492,-1.5466,-1.5467,-1.5472,-1.5512,-1.5524,-1.5528,-1.5572,-1.5543,-1.5545,-1.5547,-1.5548,-1.5644,-1.5645,0,0,0,0,0,0,-1.5368,-1.5377,-1.5444,-1.5447,-1.5404,-1.5439,-1.5445,-1.5461,-1.5492,-1.5495,-1.5473,-1.5472,-1.552,-1.5524,-1.5529,-1.557,-1.5546,-1.5548,-1.555,-1.5643,-1.5644,-1.5645,0,0,0,0,0,0,-1.5366,-1.5374,-1.5442,-1.5412,-1.5421,-1.5442,-1.546,-1.5463,-1.5474,-1.5497,-1.55,-1.5481,-1.5519,-1.5526,-1.5558,-1.5572,-1.555,-1.5552,-1.5642,-1.5644,-1.5645,-1.5651,0,0,0,0,0,0,-1.5364,-1.5373,-1.5386,-1.5413,-1.5423,-1.547,-1.546,-1.5464,-1.5479,-1.5479,-1.5506,-1.5509,-1.5519,-1.5554,-1.556,-1.5575,-1.5554,-1.5641,-1.5643,-1.5644,-1.5649,-1.5652,-1.5655,0,0,0,0,0,-1.536,-1.5386,-1.5387,-1.5395,-1.5439,-1.5471,-1.5476,-1.5487,-1.548,-1.5493,-1.5508,-1.5508,-1.5569,-1.5557,-1.5564,-1.558,-1.564,-1.5642,-1.5644,-1.5648,-1.5652,-1.5655,0,0,0,0,0,0,-1.5361,-1.539,-1.5391,-1.5426,-1.5446,-1.5471,-1.5488,-1.5491,-1.5513,-1.5512,-1.5524,-1.553,-1.5561,-1.5574,-1.556,-1.5613,-1.5604,-1.5608,-1.5604,-1.5608,-1.561,-1.5607,-1.5556,0,0,0,0,0,-1.5365,-1.5388,-1.5412,-1.544,-1.545,-1.5467,-1.5482,-1.5488,-1.5509,-1.5518,-1.5534,-1.5555,-1.5578,-1.5593,-1.5616,-1.5651,-1.5657,-1.5666,-1.5668,-1.567,-1.5673,-1.5693,-1.5697,-1.5652,-1.5652,-1.5652,0,0,-1.5373,-1.5392,-1.5406,-1.5441,-1.5457,-1.5481,-1.5475,-1.55,-1.5518,-1.5521,-1.5553,-1.5566,-1.5589,-1.5623,-1.5638,-1.5634,-1.5687,-1.5673,-1.5674,-1.5676,-1.5695,-1.5699,-1.5703,-1.5654,-1.5653,-1.5653,0,0,-1.5402,-1.5418,-1.5444,-1.546,-1.5485,-1.5496,-1.5502,-1.5527,-1.5536,-1.5567,-1.5571,-1.5592,-1.5632,-1.5649,-1.5662,-1.5696,-1.5698,-1.5703,-1.5717,-1.5736,-1.5739,-1.5742,-1.5755,-1.5759,-1.5706,-1.5706,-1.5706,0,-1.5409,-1.5445,-1.5456,-1.5482,-1.5497,-1.5501,-1.5527,-1.5543,-1.5573,-1.5584,-1.5578,-1.5629,-1.5645,-1.5683,-1.5691,-1.5702,-1.5709,-1.5701,-1.5738,-1.5741,-1.5744,-1.5756,-1.5761,-1.5707,-1.5707,-1.5707,-1.5707,0,-1.5454,-1.5479,-1.5496,-1.5526,-1.5543,-1.5569,-1.5583,-1.5599,-1.5604,-1.5616,-1.5648,-1.5667,-1.5694,-1.5703,-1.5708,-1.5742,-1.5738,-1.5735,-1.5726,-1.5749,-1.576,-1.5765,-1.5708,-1.5708,-1.5707,-1.5707,0,0,-1.5484,-1.5519,-1.5526,-1.5539,-1.5566,-1.5586,-1.5611,-1.5638,-1.5651,-1.5672,-1.5694,-1.5728,-1.5725,-1.5741,-1.5747,-1.5764,-1.579,-1.5759,-1.576,-1.5764,-1.5827,-1.583,-1.5835,-1.5791,-1.5791,-1.5792,-1.5826,0,-1.5515,-1.5561,-1.5572,-1.5611,-1.5634,-1.5639,-1.5661,-1.568,-1.5691,-1.5712,-1.5725,-1.5749,-1.5743,-1.5753,-1.5769,-1.5783,-1.5803,-1.5781,-1.5811,-1.5812,-1.5805,-1.5841,-1.5843,-1.5874,-1.583,-1.5831,-1.5831,0,-1.5558,-1.558,-1.5622,-1.5646,-1.5656,-1.5676,-1.5701,-1.5721,-1.5743,-1.575,-1.5767,-1.5772,-1.5799,-1.5788,-1.5824,-1.5809,-1.5822,-1.5831,-1.5832,-1.5836,-1.5823,-1.5846,-1.5884,-1.5889,-1.5838,-1.5838,-1.5837,0,-1.5577,-1.5617,-1.5647,-1.5658,-1.5687,-1.5701,-1.5713,-1.5734,-1.5749,-1.5771,-1.5781,-1.5805,-1.5819,-1.5838,-1.5849,-1.584,-1.5885,-1.5875,-1.5892,-1.5891,-1.5901,-1.5901,-1.5943,-1.5909,-1.5909,-1.5909,-1.5909,0,-1.5611,-1.5636,-1.5655,-1.5674,-1.5702,-1.5714,-1.5742,-1.5754,-1.5773,-1.5794,-1.5799,-1.5818,-1.5832,-1.5853,-1.5862,-1.5892,-1.5897,-1.5904,-1.5906,-1.5904,-1.5903,-1.5913,-1.5911,-1.591,-1.591,-1.5909,-1.5909,0,-1.5636,-1.565,-1.5683,-1.5708,-1.5715,-1.5734,-1.5755,-1.5774,-1.5785,-1.5811,-1.5818,-1.5836,-1.5861,-1.5874,-1.5906,-1.5912,-1.5945,-1.5946,-1.5938,-1.5939,-1.5955,-1.5953,-1.6005,-1.6012,-1.5973,-1.5974,-1.5974,0,-1.5657,-1.5677,-1.5704,-1.5718,-1.5731,-1.5754,-1.577,-1.5782,-1.5798,-1.5824,-1.5839,-1.5864,-1.5886,-1.5926,-1.5941,-1.5966,-1.5967,-1.5984,-1.5971,-1.5968,-1.5968,-1.5967,-1.5969,-1.5986,-1.5986,-1.5987,-1.5987,0,-1.5694,-1.5699,-1.5722,-1.5747,-1.5765,-1.5785,-1.5805,-1.5816,-1.5831,-1.5849,-1.5875,-1.5891,-1.5924,-1.5949,-1.5974,-1.5987,-1.599,-1.5991,-1.5996,-1.5994,-1.5989,-1.5992,-1.5944,-1.599,-1.5989,-1.5989,-1.5989,-1.5989,-1.5718,-1.5736,-1.5757,-1.5782,-1.5798,-1.5816,-1.5834,-1.5848,-1.587,-1.5897,-1.5903,-1.593,-1.5951,-1.5986,-1.5999,-1.6021,-1.6017,-1.6025,-1.6027,-1.6029,-1.6029,-1.5985,-1.6025,-1.6025,-1.6025,-1.6025,-1.6025,0,-1.5755,-1.5769,-1.5791,-1.5819,-1.5838,-1.5839,-1.586,-1.5876,-1.5901,-1.592,-1.5941,-1.5971,-1.5995,-1.6013,-1.6038,-1.6052,-1.6053,-1.6058,-1.6057,-1.606,-1.6031,-1.6024,-1.6056,-1.6056,-1.6056,-1.6056,-1.6056,-1.6056,-1.5776,-1.5806,-1.5815,-1.5852,-1.5866,-1.5894,-1.5906,-1.5923,-1.5938,-1.5971,-1.5992,-1.6003,-1.6021,-1.6048,-1.607,-1.6075,-1.6084,-1.6088,-1.6093,-1.6065,-1.6062,-1.6059,-1.6053,-1.609,-1.609,-1.612,-1.6121,-1.6121]}]]